This demonstration page uses our WeatherBlox Daily Observations layout. Learn more.

Left ArrowRight Arrow

38.83388, -104.82136

Hourly Observations for January 8, 2022

Temp ( °F °C ) Dew Point ( °F °C ) Humidity (%) Winds ( mph kmh ) Pressure ( in mb ) Visibility ( mi km ) Precip ( " mm )
12:54 am 00:54 Mostly Cloudy 41 5 14 -10 33 33 NE 9 15 29.49 999 10 16 0.00 0.00
1:54 am 01:54 Mostly Cloudy 42 5.6 12 -11.1 29 29 E 10 17 29.47 998 10 16 0.00 0.00
2:54 am 02:54 Mostly Cloudy 46 7.8 9 -12.8 22 22 Calm 29.48 998 10 16 0.00 0.00
3:54 am 03:54 Mostly Cloudy 42 5.6 10 -12.2 27 27 ENE 7 11 29.53 1000 10 16 0.00 0.00
4:54 am 04:54 Mostly Cloudy 47 8.3 10 -12.2 22 22 N 7 11 29.56 1001 10 16 0.00 0.00
5:54 am 05:54 Mostly Cloudy 39 3.9 13 -10.6 34 34 ENE 12 19 29.61 1003 10 16 0.00 0.00
6:54 am 06:54 Mostly Cloudy 45 7.2 11 -11.7 25 25 SE 8 13 29.59 1002 10 16 0.00 0.00
7:54 am 07:54 Mostly Cloudy 45 7.2 12 -11.1 26 26 ENE 7 11 29.62 1003 10 16 0.00 0.00
8:54 am 08:54 Mostly Cloudy 51 10.6 15 -9.4 24 24 ENE 7 11 29.63 1003 10 16 0.00 0.00
9:54 am 09:54 Mostly Cloudy 49 9.4 14 -10 25 25 NW 7 11 29.67 1005 10 16 0.00 0.00
10:54 am 10:54 Mostly Cloudy 54 12.2 14 -10 20 20 E 6 9 29.69 1005 10 16 0.00 0.00
11:54 am 11:54 Mostly Cloudy 56 13.3 14 -10 19 19 Calm 29.69 1005 10 16 0.00 0.00
12:54 pm 12:54 Mostly Cloudy 57 13.9 14 -10 18 18 SE 9 15 29.66 1005 10 16 0.00 0.00
1:39 pm 13:39 Mostly Cloudy 51 10.6 23 -5 33 33 ENE 24 39 29.59 1002 10 16 0.00 0.00
1:54 pm 13:54 Mostly Cloudy 49 9.4 24 -4.4 38 38 ENE 24 39 29.71 1006 10 16 0.00 0.00
2:54 pm 14:54 Mostly Cloudy 48 8.9 22 -5.6 36 36 NNE 24 39 29.79 1009 10 16 0.00 0.00
3:54 pm 15:54 Mostly Cloudy 44 6.7 21 -6.1 40 40 N 14 22 29.91 1013 10 16 0.00 0.00
4:54 pm 16:54 Cloudy with Light Rain/Snow 38 3.3 31 -0.6 76 76 NNW 20 31 29.94 1014 2 3 0.00 0.00
5:22 pm 17:22 Mostly Cloudy with Light Rain/Snow 37 3 32 0 81 81 N 18 30 29.99 1015 8 13 0.00 0.00
5:54 pm 17:54 Mostly Cloudy 36 2.2 31 -0.6 82 82 N 13 20 30.03 1017 10 16 0.00 0.00
6:54 pm 18:54 Cloudy 37 2.8 29 -1.7 73 73 WNW 7 11 30.05 1018 10 16 0.00 0.00
7:19 pm 19:19 Cloudy 38 3.3 28 -2.2 68 68 NNE 9 15 30.10 1019 10 16 0.00 0.00
7:41 pm 19:41 Cloudy with Light Snow 36 2.2 28 -2.2 73 73 NNE 17 28 30.14 1020 4 6 0.00 0.00
7:43 pm 19:43 Cloudy with Light Snow 36 2.2 28 -2.2 73 73 NNE 16 26 30.14 1020 2 3 0.00 0.00
7:54 pm 19:54 Cloudy with Light Snow 35 1.7 28 -2.2 76 76 NNE 17 28 30.14 1021 3 5 0.01 0.25
8:23 pm 20:23 Mostly Cloudy 35 1.7 27 -2.8 72 72 NNE 14 22 30.17 1022 7 11 0.00 0.00
8:54 pm 20:54 Mostly Cloudy 35 1.7 23 -5 61 61 NNW 9 15 30.14 1021 9 14 0.00 0.00
9:54 pm 21:54 Mostly Cloudy 34 1.1 21 -6.1 59 59 N 14 22 30.18 1022 10 16 0.00 0.00
10:54 pm 22:54 Mostly Cloudy 34 1.1 20 -6.7 56 56 NNW 12 19 30.20 1023 10 16 0.00 0.00
11:54 pm 23:54 Partly Cloudy 31 -0.6 19 -7.2 61 61 N 10 17 30.22 1024 10 16 0.00 0.00

Powered by AerisWeather